Regional Weather Roundup
Issued by NWS Lake Charles, LA

Current Version | Previous Version | Text Only | Print | Product List | Glossary On
Versions: 1 2 3 4 5 6 7 8 9 10 11 12 13 14 15 16 17 18 19 20 21 22 23 24 25 26 27
000
ASUS44 KLCH 210810
RWRLCH
REGIONAL WEATHER ROUNDUP
NATIONAL WEATHER SERVICE LAKE CHARLES LA
300 AM CDT THU SEP 21 2017

Note: "fair" indicates few or no clouds below 12,000 feet with no
significant weather and/or obstructions to visibility.


ACROSS SOUTHEAST TEXAS

CITY           SKY/WX    TMP DP  RH WIND       PRES   REMARKS
BEAUMONT       PTCLDY    76  74  93 S3        29.95F
BEAUMONT CITY  FAIR      77  75  93 SE3       29.96S
ORANGE         MOSUNNY   78  77  97 S3        29.98S
JASPER         CLOUDY    75  75  99 CALM      29.99S FOG
$$

ACROSS CENTRAL LOUISIANA

CITY           SKY/WX    TMP DP  RH WIND       PRES   REMARKS
LEESVILLE      CLOUDY    75  74  96 CALM      29.98S
FULLERTON      FOG       75  74  96 CALM      29.97S VSB 3/4
ALEXANDRIA INT CLEAR     74  73  97 CALM      29.97F
ESLER FIELD    PTCLDY    70  70 100 CALM      29.99S FOG
DERIDDER       FAIR      76  74  95 SE3       30.00F
OAKDALE        FOG       71  70  96 CALM      29.98S VSB 1/2
OPELOUSAS      FAIR      70  70  99 CALM      29.98S
$$

ACROSS SOUTHWEST AND SOUTH CENTRAL LOUISIANA

CITY           SKY/WX    TMP DP  RH WIND       PRES   REMARKS
SULPHUR        SUNNY     78  75  92 SE3       29.97F
LAKE CHARLES   CLEAR     75  74  96 SE5       29.97S
CHENNAULT INT    N/A     74  74  99 SE3       29.97S
CAMERON PHI      N/A     82  75  78 S10       29.96S
DEQUINCY       FAIR      73  73  97 CALM      29.98S FOG
JENNINGS       FAIR      74  73  99 CALM      29.97F FOG
LAFAYETTE      CLEAR     74  73  97 CALM      29.98S
NEW IBERIA     CLEAR     73  69  87 CALM      29.98S
ABBEVILLE      FOG       70  70 100 CALM      29.98S VSB 3/4
PATTERSON      CLEAR     72  71  97 SW3       29.98S
SALT POINT       N/A     80  74  81 CALM      29.96S
$$

SELECTED SITES ACROSS THE REGION

CITY           SKY/WX    TMP DP  RH WIND       PRES   REMARKS
HOUSTON BUSH   PTCLDY    79  76  90 S5        29.94F
HOUSTON HOBBY  PTCLDY    81  77  88 SE5       29.94F
GALVESTON      PTCLDY    84  79  85 S14       29.95F
COLLEGE STAT   PTCLDY    79  77  94 S7        29.94S
CONROE         CLEAR     76  75  97 SE5       29.95F FOG
HUNTSVILLE     PTCLDY    79  75  87 S7        29.94F
LUFKIN         PTCLDY    75  75 100 SE6       29.95F
SHREVEPORT     CLEAR     75  74  96 S3        29.95F
MONROE         CLEAR     74  72  93 CALM      30.00F
NATCHEZ MS     CLEAR     73  72  96 CALM      30.01F
BATON ROUGE    CLEAR     70  69  97 CALM      30.00R
N.O. INTL ARPT PTCLDY    75  74  96 CALM      29.99S
SLIDELL        CLEAR     74  72  93 CALM      29.98F
$$

MARINE REPORTS

STATION/POSITION TIME  SKY/WX   TEMP    WIND        PRES    VSBY
                                AIR SEA DIR/SP/G
                 (UTC)          (F)     (DEG/KT/KT) (MB)    (MI)
BUOY 30 S HIGH I 0650            82 83  170/ 14/ 17 1014.3
WVE H/P(F/S)=  3/ 5

SEA RIM ST PARK  0700            82     170/ 10/ 12 1015.1F
PORT ARTHUR      0748            80 82  180/  4/  9 1014.6F
SABINE PASS N    0748            81 84  170/  7/ 10 1015.9F
TEXAS POINT      NOT AVBL
CALCASIEU PASS   0748               84  190/ 13/ 16 1013.9F
LK CHARLES BEACH 0748            78 81              1014.4F
MARSH ISLAND     0700            82                   N/A
FRESH WATER LOCK 0748            82 85  160/  9/ 11 1014.8F
AMERADA PASS     0748            79 81   CALM  /  2 1014.9F
$$




USA.gov is the U.S. government's official web portal to all federal, state and local government web resources and services.